G7GFU-13 Weather Reports


time (UTC)temp
F
wind
direction
speed
knots
gust
knots
rain 1hr
in
rain 24hr
in
rain mn
in
humidity
%
barometer
mb
20260505200003 50 25 1.7 7.0 0.00 0.00 0.00 73 1015.3
20260505195403 50 58 1.7 5.2 0.00 0.00 0.00 72 1015.2
20260505194503 50 12 2.6 7.0 0.00 0.00 0.00 72 1015.1
20260505193603 50 9 2.6 6.1 0.00 0.00 0.00 72 1015.0
20260505192916 51 27 1.7 7.0 0.00 0.00 0.00 72 1014.9
20260505191803 51 359 1.7 5.2 0.00 0.00 0.00 73 1014.9
20260505191117 51 4 1.7 3.5 0.00 0.00 0.00 72 1014.8
20260505190216 51 336 1.7 4.3 0.00 0.00 0.00 71 1014.8
20260505185403 52 340 2.6 6.1 0.00 0.00 0.00 70 1014.8
20260505184503 52 325 2.6 3.5 0.00 0.00 0.00 71 1014.8
20260505183603 52 322 1.7 3.5 0.00 0.00 0.00 70 1014.8
20260505182703 52 315 2.6 10.4 0.00 0.00 0.00 69 1014.7
20260505181803 52 324 2.6 7.0 0.00 0.00 0.00 67 1014.7
20260505180903 53 313 2.6 7.8 0.00 0.00 0.00 67 1014.7
20260505180003 53 309 1.7 6.1 0.00 0.00 0.00 67 1014.7
20260505175403 54 323 1.7 4.3 0.00 0.00 0.00 66 1014.7
20260505174503 54 321 2.6 5.2 0.00 0.00 0.00 65 1014.7
20260505173816 54 326 2.6 6.1 0.00 0.00 0.00 66 1014.7
20260505172703 55 311 1.7 7.0 0.00 0.00 0.00 65 1014.7
20260505171803 55 326 0.9 6.1 0.00 0.00 0.00 67 1014.7
20260505170903 54 316 1.7 6.1 0.00 0.00 0.00 67 1014.7
20260505170003 54 311 1.7 3.5 0.00 0.00 0.00 67 1014.7
20260505165403 54 315 1.7 3.5 0.00 0.00 0.00 67 1014.7
20260505164503 55 316 1.7 6.1 0.00 0.00 0.00 64 1014.6
20260505163603 56 313 1.7 6.1 0.00 0.00 0.00 64 1014.6
20260505162703 57 311 1.7 4.3 0.00 0.00 0.00 62 1014.6
20260505161803 56 316 1.7 6.1 0.00 0.00 0.00 62 1014.6
20260505160903 56 314 1.7 6.1 0.00 0.00 0.00 62 1014.6
20260505152703 56 324 1.7 2.6 0.00 0.00 0.00 61 1014.7
20260505151803 56 310 1.7 4.3 0.00 0.00 0.00 61 1014.7
20260505150903 56 317 0.9 3.5 0.00 0.00 0.00 61 1014.8
20260505140216 55 319 1.7 5.2 0.00 0.00 0.00 64 1014.8
20260505124503 53 341 2.6 6.1 0.00 0.00 0.00 72 1015.0
20260505123816 53 318 2.6 5.2 0.00 0.00 0.00 72 1015.0
20260505122703 54 327 1.7 3.5 0.00 0.00 0.00 72 1015.0
20260505121803 53 309 1.7 5.2 0.00 0.00 0.00 74 1015.0
20260505120903 53 317 1.7 5.2 0.00 0.00 0.00 74 1015.1
20260505120003 52 349 1.7 3.5 0.00 0.00 0.00 78 1015.1
20260505115403 52 346 1.7 5.2 0.00 0.00 0.00 77 1015.2
20260505114503 51 347 1.7 4.3 0.00 0.00 0.00 79 1015.3
20260505113603 50 360 2.6 3.5 0.00 0.00 0.00 80 1015.3
20260505112703 50 331 3.5 7.8 0.00 0.00 0.00 77 1015.3
20260505111803 52 347 3.5 9.6 0.00 0.00 0.00 73 1015.2
20260505110903 54 326 3.5 7.0 0.00 0.00 0.00 66 1015.1
20260505110217 57 349 2.6 5.2 0.00 0.00 0.00 62 1015.1
20260505101803 51 357 1.7 6.1 0.00 0.00 0.00 77 1015.4
20260505100903 51 320 1.7 5.2 0.00 0.00 0.00 79 1015.4
20260505100003 51 315 2.6 7.8 0.00 0.00 0.00 78 1015.3
20260505095403 52 315 1.7 6.1 0.00 0.00 0.00 72 1015.3
20260505094718 53 323 1.7 5.2 0.00 0.00 0.00 70 1015.3
20260505093603 54 354 1.7 2.6 0.00 0.00 0.00 69 1015.3
20260505092703 53 314 2.6 7.0 0.00 0.00 0.00 70 1015.3
20260505091803 53 319 2.6 5.2 0.00 0.00 0.00 72 1015.3
20260505090903 52 346 2.6 6.1 0.00 0.00 0.00 72 1015.3
20260505090003 53 349 1.7 4.3 0.00 0.00 0.00 75 1015.4
20260505085403 52 341 1.7 3.5 0.00 0.00 0.00 80 1015.4
20260505084503 51 343 2.6 5.2 0.00 0.00 0.00 82 1015.4
20260505083603 51 323 2.6 7.8 0.00 0.00 0.00 80 1015.5
20260505082703 52 329 2.6 5.2 0.00 0.00 0.00 77 1015.4
20260505081803 54 336 1.7 3.5 0.00 0.00 0.00 78 1015.5
20260505081117 53 338 1.7 4.3 0.00 0.00 0.00 80 1015.5
20260505080003 52 337 0.9 4.3 0.00 0.00 0.00 81 1015.5
20260505075403 51 321 0.9 5.2 0.00 0.00 0.00 82 1015.5
20260505074503 50 318 0.9 3.5 0.00 0.00 0.00 83 1015.5
20260505073603 50 349 0.0 1.7 0.00 0.00 0.00 84 1015.5
20260505072703 50 349 0.0 0.9 0.00 0.00 0.00 84 1015.5
20260505071803 49 349 0.0 1.7 0.00 0.00 0.00 83 1015.5
20260505070903 49 357 0.9 2.6 0.00 0.00 0.00 83 1015.5
20260505070003 49 334 0.9 3.5 0.00 0.00 0.00 82 1015.5
20260505065403 49 360 0.9 2.6 0.00 0.00 0.00 82 1015.6
20260505064503 49 360 0.9 2.6 0.00 0.00 0.00 82 1015.7
20260505063603 49 360 0.9 2.6 0.00 0.00 0.00 82 1015.6
20260505062703 49 360 0.9 0.9 0.00 0.00 0.00 83 1015.7
20260505061803 48 320 0.9 2.6 0.00 0.00 0.00 83 1015.6
20260505060903 48 306 0.0 0.9 0.00 0.00 0.00 84 1015.6
20260505060003 48 0 0.0 0.0 0.00 0.00 0.00 85 1015.5
20260505055617 48 0 0.0 0.0 0.00 0.00 0.00 85 1015.5
20260505054503 47 306 0.0 1.7 0.00 0.00 0.00 85 1015.4
20260505053603 47 306 0.0 1.7 0.00 0.00 0.00 88 1015.4
20260505052703 44 0 0.0 1.7 0.00 0.00 0.00 90 1015.4
20260505052016 44 306 0.0 0.9 0.00 0.00 0.00 91 1015.3
20260505050903 43 0 0.0 1.7 0.00 0.00 0.00 91 1015.3
20260505050217 43 306 0.0 0.9 0.00 0.00 0.00 91 1015.2
20260505040904 44 312 0.0 2.6 0.00 0.00 0.00 92 1015.1
20260505040003 43 316 0.0 0.9 0.00 0.00 0.00 92 1015.1
20260505035403 44 316 0.0 1.7 0.00 0.00 0.00 92 1015.1
20260505034718 44 320 0.0 2.6 0.00 0.00 0.00 92 1015.1
20260505033817 44 0 0.0 1.7 0.00 0.00 0.00 92 1015.1
20260505032703 44 320 0.0 0.9 0.00 0.00 0.00 92 1015.2
20260505031803 44 320 0.0 0.9 0.00 0.00 0.00 92 1015.2
20260505030903 45 320 0.0 1.7 0.00 0.00 0.00 92 1015.2
20260505030003 45 308 0.9 1.7 0.00 0.00 0.00 92 1015.3
20260505025403 45 320 0.0 2.6 0.00 0.00 0.00 92 1015.3
20260505024503 45 323 0.0 1.7 0.00 0.00 0.00 92 1015.4
20260505023603 45 0 0.0 0.9 0.00 0.00 0.00 92 1015.4
20260505022703 44 0 0.0 0.0 0.00 0.00 0.00 92 1015.4
20260505021803 45 0 0.0 0.0 0.00 0.00 0.00 91 1015.4
20260505020903 46 0 0.0 0.9 0.00 0.00 0.00 91 1015.4
20260505020003 46 323 0.0 1.7 0.00 0.00 0.00 90 1015.5
20260505015404 46 324 0.0 2.6 0.00 0.00 0.00 90 1015.5
20260505014503 46 325 0.0 2.6 0.00 0.00 0.00 89 1015.5
20260505013603 47 317 1.7 2.6 0.00 0.00 0.00 88 1015.6
20260505012703 47 305 0.9 3.5 0.00 0.00 0.00 88 1015.7
20260505011803 47 316 0.9 3.5 0.00 0.00 0.00 87 1015.7
20260505011116 47 321 0.9 3.5 0.00 0.00 0.00 88 1015.7
20260505010003 46 305 0.0 3.5 0.00 0.00 0.00 89 1015.8
20260505005403 46 302 0.0 2.6 0.00 0.00 0.00 90 1015.9
20260505004503 46 0 0.0 2.6 0.00 0.00 0.00 90 1015.9
20260505003603 46 0 0.0 0.0 0.00 0.00 0.00 89 1016.0
20260505002703 47 0 0.0 0.0 0.00 0.00 0.00 88 1016.0
20260505001803 47 320 0.0 1.7 0.00 0.00 0.00 88 1016.0
20260505000903 47 319 0.9 1.7 0.00 0.00 0.00 88 1016.0
20260505000218 47 317 0.9 2.6 0.00 0.00 0.00 89 1016.1
20260504235403 47 317 0.9 3.5 0.00 0.00 0.00 89 1016.1
20260504234503 48 324 0.9 3.5 0.00 0.00 0.00 89 1016.1
20260504233603 47 319 0.9 4.3 0.00 0.00 0.00 89 1016.1
20260504232703 48 327 0.9 2.6 0.00 0.00 0.00 89 1016.1
20260504232018 48 312 0.9 5.2 0.00 0.00 0.00 88 1016.1
20260504230903 48 317 0.9 2.6 0.00 0.00 0.00 86 1016.1
20260504230217 48 316 0.9 3.5 0.00 0.00 0.00 85 1016.2
20260504225403 48 314 0.9 3.5 0.00 0.00 0.00 85 1016.2
20260504224718 48 321 0.9 5.2 0.00 0.00 0.00 85 1016.2
20260504223817 48 310 0.9 3.5 0.00 0.00 0.00 84 1016.3
20260504222703 48 319 0.9 2.6 0.00 0.00 0.00 84 1016.4
20260504221803 47 317 0.0 2.6 0.00 0.00 0.00 83 1016.5
20260504220903 47 0 0.0 0.9 0.00 0.00 0.00 84 1016.5
20260504220003 47 315 0.0 1.7 0.00 0.00 0.00 84 1016.5
20260504215403 47 313 0.0 1.7 0.00 0.00 0.00 84 1016.5
20260504214717 47 313 0.0 1.7 0.00 0.00 0.00 84 1016.5
20260504213817 48 313 0.0 1.7 0.00 0.00 0.00 83 1016.5
20260504212703 48 313 0.9 1.7 0.00 0.00 0.00 82 1016.5
20260504211803 48 326 0.9 2.6 0.00 0.00 0.00 81 1016.5
20260504210903 48 328 0.0 2.6 0.00 0.00 0.00 81 1016.5
20260504210003 49 328 0.9 2.6 0.00 0.00 0.00 80 1016.5
20260504205403 49 327 0.9 1.7 0.00 0.00 0.00 80 1016.5
20260504204503 49 319 0.9 3.5 0.00 0.00 0.00 79 1016.4
20260504203603 49 319 1.7 3.5 0.00 0.00 0.00 79 1016.3
20260504202703 49 324 1.7 3.5 0.00 0.00 0.00 78 1016.3
20260504201803 49 312 1.7 6.1 0.00 0.00 0.00 78 1016.3
20260504201116 50 308 1.7 4.3 0.00 0.00 0.00 79 1016.2